Tracking 19730 objects as of 27-Jun-2019
HD Live streaming from Space Station
objects crossing your sky now

COSMOS 1375 DEB

Track COSMOS 1375 DEB now!
10-day predictions


NORAD ID: 17806
Int'l Code: 1982-055AY
Perigee: 925.2 km
Apogee: 1,013.6 km
Inclination: 65.8 °
Period: 104.3 minutes
Semi major axis: 7340 km
RCS: 0.0072 m2 (small)
Launch date: June 6, 1982
Source: Commonwealth of Independent States (former USSR) (CIS)
Launch site: PLESETSK MISSILE AND SPACE COMPLEX (PKMTR)

Note: This is SATELLITE DEBRIS
aabbcc
Your satellite tracking list
Your tracking list is empty




NASA's NSSDC Master Catalog

Two Line Element Set (TLE):
1 17806U 82055AY  19177.47103233 -.00000092  00000-0 -93867-5 0  9991
2 17806  65.8332 309.4249 0060227 339.6197  81.1331 13.80469936695047
Source of the keplerian elements: AFSPC